Terminal Aerodrome Forecast
Issued by NWS North Platte, NE

Home | Current Version | Previous Version | Text Only | Print | Product List | Glossary On
Versions: 1 2 3 4 5 6 7 8 9 10 11 12 13 14 15 16 17 18 19
000
FTUS43 KLBF 151700
TAFVTN
TAF
KVTN 151735Z 1518/1618 17023G33KT P6SM SKC
     FM152100 15018G25KT P6SM BKN040
     FM160200 14015G23KT P6SM OVC030
      TEMPO 1605/1608 P6SM -SHRA OVC020
     FM161000 10007KT P6SM -SHRA SCT007 OVC015=

USA.gov is the U.S. government's official web portal to all federal, state and local government web resources and services.